Regional Weather Roundup
Issued by NWS Wakefield, VA

Home | Current Version | Previous Version | Graphics & Text | Print | Product List | Glossary On
Versions: 1 2 3 4 5 6 7 8 9 10 11 12 13 14 15 16 17 18 19 20 21 22 23 24 25 26 27 28 29 30 31 32 33 34 35 36 37 38 39 40 41 42 43 44 45 46 47 48 49 50
000
ASUS41 KAKQ 020615
RWRAKQ

REGIONAL WEATHER ROUNDUP
NATIONAL WEATHER SERVICE WAKEFIELD VA
200 AM EDT THU JUL 02 2015

Note: "fair" indicates few or no clouds below 12,000 feet with no
significant weather and/or obstructions to visibility. * = Denotes
station may not report precipitation (e.g., rain,snow,etc.),
thunder or fog.

VAZ042-051-052>054-056-020700-
NORTHERN VIRGINIA

CITY           SKY/WX    TMP DP  RH WIND       PRES   REMARKS
WASH NATIONAL  PTCLDY    75  70  84 CALM      29.90F
DULLES         PTCLDY    69  64  84 NW5       29.91F
FORT BELVOIR   PTCLDY    70  68  94 CALM      29.90S
QUANTICO       MOCLDY    73  69  87 NW3       29.90S
FREDERICKSBRG* NOT AVBL
STAFFORD*      NOT AVBL
WARRENTON      NOT AVBL
CULPEPER*      NOT AVBL
MANASSAS*      PTCLDY    70  68  94 CALM      29.90F
LEESBURG*      NOT AVBL
WINCHESTER     NOT AVBL
FRONT ROYAL*   NOT AVBL
LURAY*         NOT AVBL
$$

VAZ048-049-060>072-079>083-020700-
CENTRAL AND SOUTH CENTRAL VIRGINIA

CITY           SKY/WX    TMP DP  RH WIND       PRES   REMARKS
RICHMOND       CLOUDY    76  71  85 S6        29.89F
CHESTERFIELD*  NOT AVBL
PETERSBURG*    NOT AVBL
HANOVER        CLOUDY    74  70  87 S3        29.90F
TAPPAHANNOCK*  NOT AVBL
QUINTON*       NOT AVBL
CHARLOTTSVILLE PTCLDY    71  64  78 N5        29.90F
GORDONSVILLE*  NOT AVBL
ORANGE*        NOT AVBL
LOUISA*        NOT AVBL
BUMPASS*       NOT AVBL
FARMVILLE*     NOT AVBL
CREWE*         NOT AVBL
FORT PICKETT*  NOT AVBL
CHASE CITY*    NOT AVBL
CLARKSVILLE*   NOT AVBL
SOUTH HILL*    NOT AVBL
LAWRENCEVILLE* NOT AVBL
EMPORIA*       NOT AVBL
$$

VAZ088>098-020700-
SOUTHEAST VIRGINIA

CITY           SKY/WX    TMP DP  RH WIND       PRES   REMARKS
NORFOLK        MOCLDY    78  69  73 SW9       29.91S
VIRGINIA BEACH MOCLDY    78  70  76 SW7       29.90F
NORFOLK NAVAL  CLOUDY    76  70  82 SW5       29.92F
WEST POINT*    NOT AVBL
SALUDA*        NOT AVBL
NEWPORT NEWS   CLOUDY    78  71  79 SW9       29.90F
LANGLEY AFB    CLOUDY    77  71  81 SW8       29.89F
FORT EUSTIS    CLOUDY    77  76  95 SW6       29.88F
WILLIAMSBURG*  NOT AVBL
HR EXEC AP*    FAIR      73  70  88 SW5       29.94S
FRANKLIN*      NOT AVBL
WAKEFIELD      CLOUDY    76  71  85 CALM      29.91F
$$

VAZ020-022-025-037-045-020700-
WEST CENTRAL AND SOUTHWEST VIRGINIA

CITY           SKY/WX    TMP DP  RH WIND       PRES   REMARKS
STAUNTON*      NOT AVBL
WAYNESBORO*    NOT AVBL
HOT SPRINGS VA NOT AVBL
LYNCHBURG      CLOUDY    71  67  87 SW3       29.93S
DANVILLE       CLOUDY    71  68  90 SW5       29.93S
SOUTH BOSTON*  NOT AVBL
MARTINSVILLE   CLOUDY    71  71 100 CALM      29.97S
ROANOKE        CLOUDY    73  65  75 W7        29.95F
BLACKSBURG     CLOUDY    67  65  91 CALM      30.02F
DUBLIN*        NOT AVBL
MARION*        NOT AVBL
HILLSVILLE*    NOT AVBL
RICHLANDS*     NOT AVBL
WISE*          NOT AVBL
ABINGDON*      NOT AVBL
$$

MDZ021>025-VAZ099-100-020700-
SOUTHERN MARYLAND AND THE DELMARVA PENINSULA

CITY           SKY/WX    TMP DP  RH WIND       PRES   REMARKS
PATUXENT RIVER CLEAR     73  69  87 E5        29.90S
BAY BRIDGE APT   N/A     70  70 100 CALM      29.89F
LEONARDTOWN    PTCLDY    70  64  83 CALM      29.92S
DOVER          PTCLDY    74  70  87 W5        29.87F
GEORGETOWN     MOCLDY    73  66  78 SW3       29.90F
EASTON         PTCLDY    71  71 100 CALM      29.93S FOG
CAMBRIDGE      PTCLDY    72  64  78 CALM      29.89F
SALISBURY      CLEAR     72  68  87 NW3       29.90S
OCEAN CITY     NOT AVBL
WALLOPS ISLAND CLEAR     72  70  93 S6        29.90F
ACCOMACK*      NOT AVBL
$$

NCZ012>017-030>032-020700-
NORTH CENTRAL AND EASTERN NORTH CAROLINA

CITY           SKY/WX    TMP DP  RH WIND       PRES   REMARKS
ROANOKE RAPIDS NOT AVBL
RALEIGH        CLOUDY    77  70  79 SW8       29.93F
ELIZABETH CITY PTCLDY    76  72  87 SW7       29.93F
AHOSKIE*       CLOUDY    71  69  95 S3        29.92F
EDENTON*       NOT AVBL
CURRITUCK*     NOT AVBL
KILL DEVIL HLS NOT AVBL
MANTEO         NOT AVBL
CAPE HATTERAS  PTCLDY    79  75  87 W9        29.96S
TARBORO*       NOT AVBL
GOLDSBORO      MOCLDY    76  72  88 S6        29.92F
WASHINGTON     NOT AVBL
GREENVILLE     NOT AVBL
NEW BERN       CLEAR     74  71  91 SW5       29.96F
WILMINGTON     CLEAR     78  74  87 SW9       29.97F
$$

VAZ048-020700-
ELSEWHERE

CITY           SKY/WX    TMP DP  RH WIND       PRES   REMARKS
HARRISBURG PA  PTCLDY    64  60  87 CALM      29.89S
BALTIMORE      MOCLDY    69  65  86 NW6       29.89F
ANNAPOLIS      PTCLDY    73  68  84 CALM      29.89F
ANDREWS AFB    PTCLDY    69  69  99 CALM      29.89F
PHILADELPHIA   PTCLDY    73  59  61 CALM      29.90S
GREENSBORO     CLOUDY    73  68  84 SW7       29.95S
ROCKY MOUNT    CLOUDY    77  72  84 SW6       29.93S
$$

VAZ100-020700-
MARINE

STATION/POSITION TIME  TEMP    WIND        PRES    WAVE   SWELL
                       AIR SEA DIR/SP/G            HT/PER HT/PER
                 (UTC) (F)     (DEG/KT/KT) (MB)    (FT/S) (FT/S)
BRANDYWINE LGT   0500   75 73  280/  4/  6 1012.6S
CAPE MAY NJ      0500   75 79  270/  6/  7 1012.3R
LEWES DE         0500   75 73  300/  4/  4 1012.4R
15NM E FENWICK I 0550   74 73              1012.2S   4/ 8
OCEAN-CITY-INLET 0500   75 71  270/  4/  5 1012.1F
WACHAPREAGUE VA  0500   77 81  240/  4/  5 1012.7S
GOOSES REEF MD   0600   76 78   80/  4/  6 1013.2F
COVE POINT MD    0500   75      30/  8/ 10 1013.2F
SOLOMONS ISLAND  0500      80                N/A
BISHOPS HEAD MD  0500   78     350/  4/  9 1012.3R
PINEY POINT MD   0500          360/  8/  9   N/A
CAMBRIDGE MD     0500   72 80  360/  4/  4 1012.4F
LEWISETTA VA     0500   77 81  250/  6/  7 1011.9F
RAPPAHANNOCK LGT 0500          220/ 10/ 12 1013.0R
STINGRAY PT      0600   79 81  230/ 12/ 14 1012.1F
YORK RVR RNG VA  0500   79     240/  8/ 10 1012.1S
YORKTOWN VA      0500   78 80  220/  6/  8 1012.4S
JAMESTOWN VA     0600   78 83  210/  8/ 10   N/A
DOMINION TERM VA 0500   79     230/ 12/ 15 1012.6F
KIPTOPEKE VA     0500      84  190/  8/ 10   N/A
CHES BAY BRIDGE  0500   79 76  210/ 13/ 15 1012.4F
CAPE HENRY VA    0500   78     220/  6/ 10 1011.4S
CHESAPEAKE LGHT  0500   79     230/ 14/ 15 1013.6F
WILLOUBY STN VA  0500   78     230/ 13/ 14 1013.7R
CAPE HENRY BUOY  0528      78                N/A     3/ 8
1ST LANDING BUOY 0600      76              1012.5F   1/ 3
CAPE CHARLES BUO 0526      77                N/A     2/ 9   2/ 9
OFFSHORE WE BUOY 0511      78                N/A     4/ 8   3/ 8
64NM E OF VA BCH 0550   78 77  210/ 10/ 12 1013.0S   5/ 8   5/ 8
DUCK PIER NC     0500   79 62  250/ 14/ 18 1012.9R
44100 DUCK FRF   0524      77                N/A     3/ 8
44056 DUCK FRF   0511      69                N/A     2/ 9
OREGON INLET NC  0500   79 77  240/ 13/ 16 1013.8F
HATTERAS NC      0500   77 81  230/  8/ 10 1014.2F
DIAMOND SHLS NC  0550   80 82  250/ 17/ 19 1014.2F   5/ 6   2/ 8
CAPE LOOKOUT NC  0500   79     250/ 11/ 17 1014.8F
$$


USA.gov is the U.S. government's official web portal to all federal, state and local government web resources and services.